Flag for U.S.A. Weather past 2 weeks in Hayward, California, U.S.A.

Now
67 °F

Overcast.


Feels Like: 67 °F
Forecast: 58 / 67 °F
Wind: 5 mph from West

Location: Hayward Air Terminal

Current Time: Oct 20, 2014 at 2:49:35 AM

Latest Report: Oct 20, 2014 at 1:54 AM


Visibility: 10 mi

Pressure: 29.94 "Hg

Humidity: 81%

Dew point: 61 °F

Location of HaywardLocation

Historic Weather in Hayward — Graph

°F

Hayward temperature yesterday

Maximum temperature yesterday: 72 °F (at 1:54 PM)
Minimum temperature yesterday: 56 °F (at 5:54 AM)
Average temperature yesterday: 64 °F

Past Weeks' High & Low Weather Summary

 TemperatureHumidityPressure
High91 °F (Oct 5, 3:54 PM)100% (Oct 9, 5:54 AM)30.10 "Hg (Oct 9, 5:54 AM)
Low55 °F (Oct 17, 3:54 AM)12% (Oct 13, 12:54 PM)29.85 "Hg (Oct 14, 4:54 PM)
Average66 °F70%29.96 "Hg
* Reported Oct 5 12:54 AM — Oct 20 12:54 AM, Hayward, Weather by CustomWeather, © 2014

Note: Actual official high and low records may vary slightly from our data, if they occured in-between our weather recording intervals... More about our weather records

Advertising

Hayward weather history for previous 24 hours

 ConditionsComfort  
Time TempWeatherWind HumidityBarometerVisibility
12:54 AM
Oct 20
66 °FOvercast.5 mph87%29.94 "Hg10 mi
11:54 PM
Oct 19
65 °FOvercast.No wind91%29.93 "Hg10 mi
10:54 PM64 °FPassing clouds.3 mph90%29.93 "Hg10 mi
9:54 PM62 °FPassing clouds.No wind96%29.93 "Hg10 mi
7:54 PM63 °FClear.8 mph93%29.91 "Hg10 mi
6:54 PM64 °FSunny.5 mph90%29.89 "Hg10 mi
5:54 PM69 °FSunny.9 mph73%29.89 "Hg10 mi
4:54 PM71 °FSunny.12 mph68%29.89 "Hg10 mi
3:54 PM67 °FSunny.13 mph79%29.89 "Hg10 mi
2:54 PM71 °FSunny.13 mph71%29.89 "Hg10 mi
1:54 PM72 °FSunny.13 mph66%29.90 "Hg10 mi
12:54 PM71 °FSunny.5 mph68%29.92 "Hg10 mi
11:54 AM70 °FSunny.6 mph76%29.95 "Hg10 mi
10:54 AM69 °FPartly sunny.No wind79%29.95 "Hg10 mi
9:54 AM65 °FLow clouds.No wind91%29.95 "Hg9 mi
8:54 AM65 °FLow clouds.3 mph87%29.95 "Hg10 mi
7:54 AM58 °FPassing clouds.3 mph100%29.93 "Hg10 mi
6:54 AM57 °FPassing clouds.No wind100%29.92 "Hg10 mi
5:54 AM56 °FClear.3 mph100%29.90 "Hg10 mi
4:54 AM57 °FLow clouds.6 mph100%29.90 "Hg10 mi
3:54 AM57 °FClear.No wind100%29.91 "Hg10 mi
2:54 AM58 °FClear.3 mph100%29.92 "Hg10 mi
Weather by CustomWeather, © 2014

See weather overviewHow to use our weather pages